This is the latest recevied weather packets stored in our database for station/object W3JBS-2. If no packets are shown the sender has not sent any weather packets the latest 10 day(s).
| Time | Temp. | Humidity | Pressure | Rain* | Wind** | Luminosity | Snow |
|---|---|---|---|---|---|---|---|
| 1787468782 | 18.89° C | 86% | 1028.1 hPa | 16 mm | - | 1760 W/m² | - |
| 1787467883 | 19.44° C | 86% | 1032.9 hPa | 12.45 mm | - | 1760 W/m² | - |
| 1787466982 | 21.11° C | 86% | 1026.6 hPa | 0 mm | - | 1760 W/m² | - |
| 1787466083 | 20.56° C | 86% | 1029.4 hPa | 0 mm | - | 1760 W/m² | - |
| 1787465182 | 20.56° C | 85% | 1031.4 hPa | 0 mm | - | 1760 W/m² | - |
| 1787464282 | 20.56° C | 85% | 1031.2 hPa | 0 mm | - | 1760 W/m² | - |
| 1787463383 | 20.56° C | 85% | 1028.9 hPa | 0 mm | - | 1760 W/m² | - |
| 1787462482 | 20.56° C | 84% | 1031.7 hPa | 0 mm | - | 1761 W/m² | - |
| 1787461582 | 20.56° C | 84% | 1027.5 hPa | 0 mm | - | 1761 W/m² | - |
| 1787458883 | 20.56° C | 83% | 1029.6 hPa | 0 mm | - | 1761 W/m² | - |
| 1787457982 | 20.56° C | 84% | 1035.3 hPa | 0 mm | - | 1761 W/m² | - |
| 1787457082 | 20.56° C | 84% | 1031.8 hPa | 0 mm | - | 1763 W/m² | - |
| 1787456182 | 20.56° C | 84% | 1026.6 hPa | 0 mm | - | 1763 W/m² | - |
| 1787455282 | 20.56° C | 84% | 1035.5 hPa | 0 mm | - | 1763 W/m² | - |
| 1787454382 | 20.56° C | 84% | 1026.4 hPa | 0 mm | - | 1763 W/m² | - |
| 1787453482 | 20.56° C | 84% | 1034.1 hPa | 0 mm | - | 1765 W/m² | - |
| 1787451682 | 21.11° C | 83% | 1034.8 hPa | 0 mm | - | 1765 W/m² | - |
| 1787450782 | 21.11° C | 83% | 1035.2 hPa | 0 mm | - | 1763 W/m² | - |
| 1787449882 | 21.11° C | 83% | 1037.1 hPa | 0 mm | - | 1763 W/m² | - |
| 1787448982 | 21.11° C | 84% | 1035.9 hPa | 0 mm | - | 1765 W/m² | - |
| 1787448082 | 21.11° C | 84% | 1032.4 hPa | 0 mm | - | 1765 W/m² | - |
| 1787447182 | 21.11° C | 84% | 1034.3 hPa | 0 mm | - | 1765 W/m² | - |
| 1787444482 | 21.67° C | 81% | 1031.1 hPa | 0 mm | - | 1767 W/m² | - |
| 1787443582 | 22.22° C | 80% | 1035.7 hPa | 0 mm | - | 1765 W/m² | - |
| 1787442682 | 22.22° C | 79% | 1034.4 hPa | 0 mm | - | 1765 W/m² | - |
* Rain latest hour (hover to see other rain measurements)
** Current wind speed in m/s (hover to see current wind gust speed)